Location: Bacea
(45.9500°N, 22.6667°E)
Time: 09:31:35
(UTC+00:00)

H-2A R/B - Pass Details

Date: 16 October 2021
Orbit: 577 x 654 km, 98.5° (Epoch: 02 December)

Event Time Altitude Azimuth Distance (km) Brightness Sun altitude
Rises 16:36:54 0° 26° (NNE) 2,804 5.1 -10.4°
Reaches altitude 10° 16:39:25 10° 41° (NE) 1,901 4.2 -10.8°
Maximum altitude 16:42:44 23° 95° (E) 1,240 3.0 -11.4°
Drops below altitude 10° 16:46:04 10° 149° (SSE) 1,903 4.3 -12.0°
Sets 16:48:34 0° 164° (SSE) 2,807 5.3 -12.4°
